Weather History for Troy, MI

Change the Weather History Date:

Friday, March 8, 2013

  Actual Average (KDET) Record (KDET)
Temperature  
Mean Temperature 36 °F -  
Max Temperature 46 °F 40 °F 75 °F (1987)
Min Temperature 25 °F 24 °F 5 °F (1986)
Degree Days  
Heating Degree Days 30    
Moisture  
Dew Point 23 °F    
Average Humidity 61    
Maximum Humidity 88    
Minimum Humidity 39    
Precipitation  
Precipitation 0.00 in - - ()
Sea Level Pressure  
Sea Level Pressure 30.45 in    
Wind  
Wind Speed 2 mph (North)    
Max Wind Speed 8 mph    
Max Gust Speed -    
Visibility 10 miles    
Events      
Averages and records for this station are not official NWS values.
T = Trace of Precipitation, MM = Missing Value Source: NWS Daily Summary

Daily Weather History Graph

Daily Weather History Graph

Search for Another Location

Airport:

Trip Planner

Search our weather history database for the weather conditions in past years. The results will help you decide how hot, cold, wet, or windy it might be!

Date:

Astronomy

Mar. 08, 2013 Rise Set
Actual Time 6:56 AM EST 6:31 PM EST
Civil Twilight 6:28 AM EST 6:59 PM EST
Nautical Twilight 5:55 AM EST 7:31 PM EST
Astronomical Twilight 5:22 AM EST 8:04 PM EST
Moon 4:43 AM EST (3/8) 3:22 PM EST (3/8)
Length of Visible Light 12h 31m
Length of Day
11h 34m
Waning Crescent, 12% of the Moon is Illuminated
Mar 8
Waning Crescent
Mar 11
New
Mar 19
First Quarter
Mar 27
Full
Apr 3
Last Quarter

Hourly Weather History & Observations

Time (EST) Temp. Windchill Dew Point Humidity Pressure Visibility Wind Dir Wind Speed Gust Speed Precip Events Conditions
12:14 AM 30.0 °F - 20.3 °F 67% 30.41 in 10.0 mi Calm Calm - N/A   Clear
12:35 AM 28.9 °F 25.2 °F 20.3 °F 70% 30.41 in 10.0 mi NNW 3.5 mph - N/A   Clear
1:14 AM 28.9 °F 25.2 °F 20.3 °F 70% 30.42 in 10.0 mi NW 3.5 mph - N/A   Clear
1:34 AM 28.9 °F 25.2 °F 20.3 °F 70% 30.42 in 10.0 mi NW 3.5 mph - N/A   Clear
1:54 AM 27.9 °F - 19.8 °F 72% 30.43 in 10.0 mi Calm Calm - N/A   Clear
2:14 AM 28.2 °F - 19.9 °F 71% 30.42 in 10.0 mi Calm Calm - N/A   Clear
2:34 AM 28.4 °F 23.3 °F 19.6 °F 70% 30.43 in 10.0 mi NW 4.6 mph - N/A   Clear
2:54 AM 28.0 °F 22.8 °F 19.2 °F 70% 30.43 in 10.0 mi NW 4.6 mph - N/A   Clear
3:14 AM 28.0 °F 24.2 °F 19.2 °F 70% 30.43 in 10.0 mi WNW 3.5 mph - N/A   Clear
3:34 AM 27.5 °F 21.1 °F 19.2 °F 71% 30.43 in 10.0 mi WNW 5.8 mph - N/A   Clear
3:54 AM 27.1 °F 21.8 °F 19.4 °F 73% 30.44 in 10.0 mi WNW 4.6 mph - N/A   Clear
4:15 AM 27.0 °F 19.5 °F 19.4 °F 73% 30.44 in 10.0 mi WNW 6.9 mph - N/A   Clear
4:34 AM 27.0 °F 23.0 °F 18.9 °F 72% 30.45 in 10.0 mi NW 3.5 mph - N/A   Clear
4:54 AM 27.0 °F 20.5 °F 18.5 °F 70% 30.45 in 10.0 mi NNW 5.8 mph - N/A   Clear
5:15 AM 27.0 °F 19.5 °F 18.3 °F 70% 30.45 in 10.0 mi NW 6.9 mph - N/A   Clear
5:34 AM 26.6 °F 20.0 °F 18.5 °F 71% 30.46 in 10.0 mi NNW 5.8 mph - N/A   Clear
5:54 AM 26.1 °F 21.9 °F 18.5 °F 73% 30.46 in 10.0 mi NNW 3.5 mph - N/A   Clear
6:15 AM 25.7 °F 21.5 °F 18.9 °F 75% 30.47 in 10.0 mi NNW 3.5 mph - N/A   Clear
6:34 AM 25.7 °F - 19.0 °F 76% 30.47 in 10.0 mi Calm Calm - N/A   Clear
6:54 AM 25.7 °F - 19.2 °F 76% 30.47 in 10.0 mi Calm Calm - N/A   Clear
7:14 AM 25.5 °F - 19.4 °F 78% 30.48 in 10.0 mi Calm Calm - N/A   Clear
7:34 AM 26.4 °F 22.4 °F 19.8 °F 76% 30.48 in 10.0 mi NNW 3.5 mph - N/A   Clear
7:55 AM 27.3 °F 23.4 °F 20.3 °F 75% 30.49 in 10.0 mi NNW 3.5 mph - N/A   Clear
8:14 AM 28.4 °F 24.6 °F 20.7 °F 73% 30.49 in 10.0 mi North 3.5 mph - N/A   Clear
8:34 AM 30.4 °F - 21.6 °F 70% 30.49 in 10.0 mi Calm Calm - N/A   Clear
8:54 AM 32.0 °F 25.6 °F 22.3 °F 67% 30.49 in 10.0 mi North 6.9 mph - N/A   Clear
9:14 AM 33.1 °F 27.7 °F 21.7 °F 63% 30.50 in 10.0 mi North 5.8 mph - N/A   Clear
9:35 AM 35.1 °F 28.6 °F 21.7 °F 58% 30.50 in 10.0 mi NNE 8.1 mph - N/A   Clear
9:54 AM 36.3 °F 30.8 °F 21.7 °F 56% 30.50 in 10.0 mi North 6.9 mph - N/A   Clear
10:14 AM 36.5 °F 32.7 °F 21.7 °F 55% 30.50 in 10.0 mi North 4.6 mph - N/A   Clear
10:34 AM 37.4 °F - 21.9 °F 54% 30.50 in 10.0 mi Calm Calm - N/A   Clear
10:55 AM 38.5 °F - 22.1 °F 52% 30.50 in 10.0 mi Calm Calm - N/A   Clear
11:14 AM 39.9 °F 36.7 °F 23.0 °F 51% 30.50 in 10.0 mi North 4.6 mph - N/A   Clear
11:34 AM 40.5 °F - 23.5 °F 51% 30.50 in 10.0 mi Calm Calm - N/A   Clear
11:54 AM 40.6 °F - 23.5 °F 51% 30.49 in 10.0 mi Calm Calm - N/A   Clear
12:14 PM 41.5 °F - 23.9 °F 50% 30.49 in 10.0 mi Calm Calm - N/A   Clear
12:35 PM 42.4 °F - 24.3 °F 49% 30.48 in 10.0 mi Calm Calm - N/A   Clear
12:54 PM 42.4 °F 39.6 °F 25.0 °F 50% 30.48 in 10.0 mi NE 4.6 mph - N/A   Clear
1:14 PM 43.2 °F - 24.1 °F 47% 30.47 in 10.0 mi Calm Calm - N/A   Clear
1:34 PM 43.7 °F 42.1 °F 23.4 °F 45% 30.45 in 10.0 mi East 3.5 mph - N/A   Clear
1:54 PM 43.9 °F - 23.9 °F 45% 30.44 in 10.0 mi Calm Calm - N/A   Clear
2:15 PM 44.2 °F - 23.2 °F 43% 30.44 in 10.0 mi Calm Calm - N/A   Clear
2:34 PM 46.6 °F - 24.3 °F 42% 30.44 in 10.0 mi South 3.5 mph - N/A   Scattered Clouds
2:54 PM 45.5 °F - 22.8 °F 41% 30.44 in 10.0 mi Calm Calm - N/A   Mostly Cloudy
3:15 PM 45.9 °F - 22.1 °F 39% 30.44 in 10.0 mi Calm Calm - N/A   Mostly Cloudy
3:34 PM 46.2 °F - 23.0 °F 40% 30.43 in 10.0 mi Calm Calm - N/A   Scattered Clouds
3:54 PM 45.7 °F 44.4 °F 23.7 °F 42% 30.43 in 10.0 mi East 3.5 mph - N/A   Clear
4:15 PM 45.1 °F - 23.4 °F 42% 30.43 in 10.0 mi Calm Calm - N/A   Clear
4:34 PM 45.0 °F - 22.8 °F 42% 30.43 in 10.0 mi Calm Calm - N/A   Clear
4:54 PM 45.9 °F 44.6 °F 23.0 °F 41% 30.43 in 10.0 mi ESE 3.5 mph - N/A   Clear
5:15 PM 45.7 °F - 22.8 °F 41% 30.43 in 10.0 mi Calm Calm - N/A   Clear
5:34 PM 45.5 °F 43.2 °F 23.2 °F 41% 30.43 in 10.0 mi SSE 4.6 mph - N/A   Clear
5:54 PM 44.2 °F 41.0 °F 25.2 °F 47% 30.43 in 10.0 mi ESE 5.8 mph - N/A   Clear
6:14 PM 42.8 °F 40.1 °F 25.5 °F 51% 30.43 in 10.0 mi East 4.6 mph - N/A   Clear
6:34 PM 41.5 °F 39.6 °F 25.5 °F 53% 30.43 in 10.0 mi ESE 3.5 mph - N/A   Clear
6:55 PM 40.8 °F 38.8 °F 25.7 °F 55% 30.44 in 10.0 mi ESE 3.5 mph - N/A   Clear
7:14 PM 40.1 °F - 26.1 °F 57% 30.44 in 10.0 mi Calm Calm - N/A   Clear
7:34 PM 39.2 °F - 25.9 °F 59% 30.44 in 10.0 mi Calm Calm - N/A   Clear
7:55 PM 38.7 °F - 25.7 °F 60% 30.43 in 10.0 mi Calm Calm - N/A   Clear
8:14 PM 37.9 °F - 25.7 °F 61% 30.43 in 10.0 mi Calm Calm - N/A   Clear
8:34 PM 37.4 °F - 25.9 °F 63% 30.44 in 10.0 mi Calm Calm - N/A   Clear
8:54 PM 37.0 °F - 25.3 °F 63% 30.45 in 10.0 mi Calm Calm - N/A   Clear
9:14 PM 36.1 °F - 24.8 °F 63% 30.44 in 10.0 mi Calm Calm - N/A   Clear
9:35 PM 35.2 °F - 25.3 °F 67% 30.45 in 10.0 mi Calm Calm - N/A   Clear
9:54 PM 34.3 °F 31.4 °F 25.5 °F 70% 30.45 in 10.0 mi ESE 3.5 mph - N/A   Clear
10:14 PM 35.6 °F - 26.1 °F 68% 30.46 in 10.0 mi Calm Calm - N/A   Clear
10:34 PM 34.0 °F 31.0 °F 25.7 °F 72% 30.46 in 10.0 mi ESE 3.5 mph - N/A   Clear
10:54 PM 34.0 °F 31.0 °F 28.2 °F 79% 30.46 in 10.0 mi ESE 3.5 mph - N/A   Clear
11:14 PM 33.8 °F - 29.1 °F 83% 30.46 in 10.0 mi Calm Calm - N/A   Clear
11:34 PM 32.4 °F - 28.2 °F 85% 30.45 in 10.0 mi Calm Calm - N/A   Clear
11:55 PM 32.4 °F - 29.1 °F 88% 30.45 in 7.0 mi Calm Calm - N/A   Clear